This demonstration page uses our WeatherBlox Daily Observations layout. Learn more.

Left ArrowRight Arrow

Hourly Observations for June 9, 2021

Temp ( °F °C ) Dew Point ( °F °C ) Humidity (%) Winds ( mph kmh ) Pressure ( in mb ) Visibility ( mi km ) Precip ( " mm )
12:53 am 00:53 Mostly Clear 56 13.3 48 8.9 75 75 NE 9 15 29.95 1014 10 16 N/A
1:53 am 01:53 Clear 55 12.8 48 8.9 77 77 ENE 10 17 29.96 1015 10 16 N/A
2:53 am 02:53 Clear 53 11.7 49 9.4 86 86 ENE 9 15 29.97 1015 10 16 N/A
3:46 am 03:46 Mostly Cloudy 53 11.7 49 9.4 86 86 ENE 9 15 29.99 1016 10 16 N/A
3:53 am 03:53 Mostly Cloudy 53 11.7 49 9.4 86 86 ENE 9 15 29.98 1015 10 16 N/A
4:15 am 04:15 Partly Cloudy 53 11.7 49 9.4 86 86 ENE 9 15 29.98 1015 10 16 N/A
4:53 am 04:53 Clear 52 11.1 49 9.4 89 89 E 7 11 29.98 1015 10 16 N/A
5:53 am 05:53 Sunny 51 10.6 49 9.4 92 92 N N/A 29.99 1016 10 16 N/A
6:53 am 06:53 Sunny 55 12.8 50 10 83 83 ENE 3 6 29.97 1015 10 16 N/A
7:53 am 07:53 Sunny 58 14.4 52 11.1 81 81 E 12 19 29.97 1015 10 16 N/A
8:53 am 08:53 Mostly Cloudy 61 16.1 54 12.2 78 78 E 14 22 29.97 1015 10 16 N/A
9:05 am 09:05 Cloudy 62 16.7 54 12.2 75 75 E 12 19 29.92 1013 10 16 N/A
9:53 am 09:53 Cloudy 63 17.2 54 12.2 73 73 ENE 14 22 29.97 1015 10 16 N/A
10:53 am 10:53 Mostly Cloudy 66 18.9 54 12.2 65 65 E 17 28 29.94 1014 10 16 N/A
11:09 am 11:09 Partly Cloudy 67 19.4 55 12.8 66 66 E 17 28 29.87 1011 10 16 N/A
11:53 am 11:53 Mostly Cloudy 67 19.4 55 12.8 66 66 E 18 30 29.95 1014 10 16 N/A
12:13 pm 12:13 Partly Cloudy 68 20 56 13.3 65 65 E 17 28 29.87 1012 10 16 N/A
12:53 pm 12:53 Partly Cloudy 68 20 56 13.3 65 65 E 20 31 29.94 1014 10 16 N/A
1:07 pm 13:07 Mostly Cloudy 67 19.4 56 13.3 68 68 ENE 16 26 29.87 1011 10 16 N/A
1:38 pm 13:38 Cloudy 67 19.4 56 13.3 68 68 ENE 16 26 29.87 1011 10 16 N/A
1:53 pm 13:53 Cloudy 69 20.6 57 13.9 66 66 E 16 26 29.93 1014 10 16 N/A
2:53 pm 14:53 Cloudy 68 20 57 13.9 68 68 ENE 14 22 29.93 1014 10 16 N/A
3:53 pm 15:53 Cloudy 69 20.6 58 14.4 68 68 ENE 9 15 29.93 1013 10 16 N/A
4:53 pm 16:53 Cloudy 71 21.7 58 14.4 63 63 NE 5 7 29.92 1013 10 16 N/A
5:53 pm 17:53 Mostly Cloudy 71 21.7 57 13.9 61 61 N 12 19 29.90 1013 10 16 N/A
6:53 pm 18:53 Cloudy 68 20 57 13.9 68 68 N 14 22 29.89 1012 10 16 N/A
7:53 pm 19:53 Cloudy 67 19.4 57 13.9 71 71 N 13 20 29.89 1012 10 16 N/A
8:53 pm 20:53 Cloudy 66 18.9 56 13.3 70 70 NNW 14 22 29.89 1012 10 16 N/A
9:53 pm 21:53 Cloudy 62 16.7 55 12.8 78 78 WNW 10 17 29.94 1014 10 16 N/A
10:53 pm 22:53 Cloudy 62 16.7 55 12.8 78 78 WNW 10 17 29.91 1013 10 16 0.00 0.00
11:53 pm 23:53 Cloudy 61 16.1 54 12.2 78 78 NNE 7 11 29.88 1012 10 16 N/A

Powered by AerisWeather